Location: Guilderland
(42.7045°N, 73.9115°W)
Time: 16:27:29
(UTC+00:00)

Cosmos 1703 - Pass Details

Date: 24 January 2020
Orbit: 524 x 541 km, 82.5° (Epoch: 21 February)

Event Time Altitude Azimuth Distance (km) Brightness Sun altitude
Rises 23:03:19 0° 176° (S) 2,681 7.0 -12.1°
Reaches altitude 10° 23:05:28 10° 172° (S) 1,796 6.0 -12.5°
Maximum altitude 23:09:20 55° 95° (E) 656 3.3 -13.1°
Drops below altitude 10° 23:13:14 10° 17° (NNE) 1,814 5.7 -13.8°
Enters shadow 23:14:55 - 14° (NNE) 2,498 6.4 -14.1°
